アトラス彗星

C/2022 L2 ( ATLAS )

English version
Home page
Updated on November 26, 2022

---------------------------------------------------------------------

・ プロフィール

発見日 2022年6月10日
発見光度 18.4等
発見者 Asteroid Terrestrial-Impact Last Alert System (ATLAS) search program

・ 写真集

・ 軌道要素

Epoch 2022 Aug. 9.0 TT = JDT 2459800.5
T 2024 Mar. 12.42849 TT                                 Rudenko
q   2.6914570            (2000.0)            P               Q
z  -0.0003693      Peri.  199.97373     -0.86475690     -0.11217982
 +/-0.0000061      Node    39.24736     -0.28665492     +0.91059846
e   1.0009940      Incl.  129.31204     -0.41234023     -0.39777650
>From 807 observations 2022 May 20-Nov. 9, mean residual 0".6.

・ 星図

・ 光度変化

        m1 = 6.0 + 5 logΔ + 10.0 log r

---------------------------------------------------------------------

軌道要素はM.P.E.C. 2022-V125に掲載されたものです。
星図はステラナビゲータ Ver.10 (アストロアーツ) で作成したものです。
光度グラフはComet for Windowsで作成したものです。

---------------------------------------------------------------------

Copyright(C) Seiichi Yoshida (comet@aerith.net). All rights reserved.